Regional Weather Roundup
Issued by NWS

Home | Current Version | Previous Version | Graphics & Text | Print | Product List | Glossary On
Versions: 1 2 3 4 5 6 7 8 9 10 11 12 13 14 15 16 17 18 19 20 21 22 23 24 25 26 27 28 29 30 31 32 33 34 35 36 37 38 39 40 41 42 43 44 45 46 47 48 49 50
000
ASUS45 KABQ 240301
RWRNM
WEATHER ROUNDUP FOR NEW MEXICO
NATIONAL WEATHER SERVICE ALBUQUERQUE NM
900 PM MDT WED APR 23 2014

NOTE: "FAIR" MEANS FEW OR NO CLOUDS BELOW 12,000 FEET AGL WITH NO
       SIGNIFICANT WEATHER OR OBSTRUCTIONS TO VISION.

      THIS PRODUCT IS RELEASED AS TWO VERSIONS.  ONE VERSION NEAR
      THE TOP OF THE HOUR CONTAINING PRELIMINARY DATA FROM ALBUQUERQUE
      AND OTHER STATIONS.  A FINAL VERSION WITH ADDITIONAL DATA IS
      ISSUED ABOUT 10 MINUTES AFTER THE HOUR.

NMZ501-503-504-510>518-240400-
NORTHWEST PLATEAU/NORTHCENTRAL MOUNTAINS

CITY           SKY/WX    TMP DP  RH WIND       PRES   REMARKS
FARMINGTON     CLEAR     52   8  17 W17G24    29.94R
LOS ALAMOS     PTCLDY    50  11  20 SE8G17    29.92R
SANTA FE       PTCLDY    52  14  22 NW10      29.89R
TAOS           PTCLDY    45  16  31 NW7       29.94R
ANGEL FIRE     FAIR      42  20  40 SW7G18    29.92S

$$
NMZ402-403-502-505>509-240400-
WESTCENTRAL MOUNTAINS/SOUTHWEST MOUNTAINS

CITY           SKY/WX    TMP DP  RH WIND       PRES   REMARKS
GALLUP         CLEAR     52   7  16 NW7       29.99R
SILVER CITY    CLEAR     61  14  16 NW8       29.97R

$$
NMZ407-409-411-412-240400-
SOUTHERN DESERTS

CITY           SKY/WX    TMP DP  RH WIND       PRES   REMARKS
DEMING         CLEAR     71  12  10 W20G29    29.86R
LAS CRUCES     CLEAR     72  18  12 W20G29    29.86R
HOLLOMAN AFB   PTCLDY    74  20  13 SW13      29.80R
T OR C         CLEAR     68   9  10 W14       29.86R

$$
NMZ519>523-240400-
CENTRAL VALLEYS/CENTRAL HIGHLANDS

CITY           SKY/WX    TMP DP  RH WIND       PRES   REMARKS
ALBUQUERQUE    PTCLDY    61  15  16 NW16G24   29.89R
DOUBLE EAGLE   PTCLDY    54  16  22 NW10      29.90R
CLINES CORNERS CLOUDY    53  17  24 NW16      29.89R
BELEN          FAIR      59  13  16 W9        29.89R
SOCORRO        NOT AVBL

$$
NMZ524>526-539-540-240400-
SOUTHCENTRAL MOUNTAINS

CITY           SKY/WX    TMP DP  RH WIND       PRES   REMARKS
RUIDOSO        NOT AVBL

$$
NMZ527>531-240400-
NORTHEAST HIGHLANDS/NORTHEAST PLAINS

CITY           SKY/WX    TMP DP  RH WIND       PRES   REMARKS
LAS VEGAS      MOCLDY    52  18  26 NW14      29.84S
RATON          CLOUDY    54  25  32 W13       29.79R
CLAYTON        PTCLDY    65  23  20 W21G28    29.68R

$$
NMZ532>537-240400-
EASTCENTRAL PLAINS

CITY           SKY/WX    TMP DP  RH WIND       PRES   REMARKS
TUCUMCARI      MOCLDY    72  24  16 NW22G32   29.67R
CANNON AFB     PTCLDY    73  19  13 W17G38    29.70R
CLOVIS AIRPORT PTCLDY    66  19  16 SW15      29.70R

$$
NMZ028-029-538-240400-
SOUTHEAST PLAINS

CITY           SKY/WX    TMP DP  RH WIND       PRES   REMARKS
ROSWELL        CLEAR     77  15   9 SW17      29.70R
CARLSBAD       CLEAR     69  24  18 W9        29.71R
HOBBS          CLEAR     72  18  13 SW12      29.74R


$$



USA.gov is the U.S. government's official web portal to all federal, state and local government web resources and services.